Location: Bailleul
(50.3375°N, 2.8513°E)
Time: 14:18:51
(UTC+00:00)

Terra - Pass Details

Date: 16 June 2021
Orbit: 701 x 703 km, 98.2° (Epoch: 05 August)

Event Time Altitude Azimuth Distance (km) Brightness Sun altitude
Exits shadow 21:05:51 10° 146° (SE) 2,185 3.7 -7.9°
Reaches altitude 10° 21:05:54 10° 146° (SE) 2,168 3.7 -7.9°
Maximum altitude 21:10:31 54° 70° (ENE) 856 2.2 -8.3°
Drops below altitude 10° 21:15:11 10° 354° (N) 2,184 5.4 -8.8°
Sets 21:17:29 0° 350° (N) 3,107 6.5 -9.0°
